Satellite: RS-30
Catalog number: 32953
Epoch time:      10364.28158538
Element set:     344
Inclination:      082.5025 deg
RA of node:       267.7373 deg
Eccentricity:    0.0019867
Arg of perigee:   036.4521 deg
Mean anomaly:     323.7910 deg
Mean motion:   12.43010045 rev/day
Decay rate:        1.0e-07 rev/day^2
Epoch rev:           11810
Checksum:              267

Satellite: TACSAT-3
Catalog number: 35001
Epoch time:      10363.78044915
Element set:    0486
Inclination:      040.4545 deg
RA of node:       117.2748 deg
Eccentricity:    0.0022524
Arg of perigee:   026.0439 deg
Mean anomaly:     334.1505 deg
Mean motion:   15.44203773 rev/day
Decay rate:      5.853e-05 rev/day^2
Epoch rev:           09085
Checksum:              281

Satellite: PHARMSAT
Catalog number: 35002
Epoch time:      10363.68257296
Element set:     435
Inclination:      040.4685 deg
RA of node:       115.3864 deg
Eccentricity:    0.0024359
Arg of perigee:   028.8256 deg
Mean anomaly:     331.3902 deg
Mean motion:   15.44474909 rev/day
Decay rate:      5.090e-05 rev/day^2
Epoch rev:            9086
Checksum:              302

Satellite: HAWKSAT1
Catalog number: 35003
Epoch time:      10364.53112072
Element set:     474
Inclination:      040.4570 deg
RA of node:       097.1915 deg
Eccentricity:    0.0022744
Arg of perigee:   059.9209 deg
Mean anomaly:     300.3877 deg
Mean motion:   15.50488778 rev/day
Decay rate:     1.5442e-04 rev/day^2
Epoch rev:            9114
Checksum:              286

Satellite: CP6
Catalog number: 35004
Epoch time:      10364.49046778
Element set:     476
Inclination:      040.4584 deg
RA of node:       094.1665 deg
Eccentricity:    0.0022436
Arg of perigee:   065.0957 deg
Mean anomaly:     295.2273 deg
Mean motion:   15.52511343 rev/day
Decay rate:     1.8346e-04 rev/day^2
Epoch rev:            9116
Checksum:              305

Satellite: AEROCUB3
Catalog number: 35005
Epoch time:      10364.57518968
Element set:     594
Inclination:      040.4559 deg
RA of node:       065.0351 deg
Eccentricity:    0.0020548
Arg of perigee:   091.4613 deg
Mean anomaly:     268.8519 deg
Mean motion:   15.98453973 rev/day
Decay rate:    8.42931e-03 rev/day^2
Epoch rev:            9149
Checksum:              336

Satellite: METEOR-M
Catalog number: 35865
Epoch time:      10364.82289187
Element set:     969
Inclination:      098.7321 deg
RA of node:       056.9377 deg
Eccentricity:    0.0002625
Arg of perigee:   141.6013 deg
Mean anomaly:     218.5286 deg
Mean motion:   14.21833926 rev/day
Decay rate:       1.76e-06 rev/day^2
Epoch rev:            6666
Checksum:              327

Satellite: RS-38
Catalog number: 35869
Epoch time:      10364.63183949
Element set:     982
Inclination:      098.7304 deg
RA of node:       056.7893 deg
Eccentricity:    0.0004666
Arg of perigee:   148.3558 deg
Mean anomaly:     211.7874 deg
Mean motion:   14.21997055 rev/day
Decay rate:       1.77e-06 rev/day^2
Epoch rev:            6664
Checksum:              363

/EX


_______________________________________________
Via the Keps mailing list courtesy of AMSAT-NA
http://amsat.org/mailman/listinfo/keps

--- ViaMAIL!/WC v1.60d
 * Origin: Chowdanet (401-724-4410) telnet://chowdanet.com  (1:323/120)